Location: Lalanga
(4.5882°N, 32.9072°E)
Time: 05:23:56
(UTC+00:00)

Ariane H10+ - Pass Details

Date: 24 January 2020
Orbit: 366 x 34441 km, 7.1° (Epoch: 19 February)

Event Time Altitude Azimuth Distance (km) Brightness Sun altitude
Rises 16:06:21 0° 277° (W) 2,537 6.1 -2.9°
Reaches altitude 10° 16:07:39 10° 280° (W) 1,924 5.3 -3.2°
Maximum altitude 16:11:21 73° 5° (N) 1,130 2.8 -4.1°
Drops below altitude 10° 16:31:17 10° 89° (E) 9,174 6.9 -8.8°
Enters shadow 16:42:36 - 91° (E) 12,951 7.6 -11.5°
